Weather History for Pella, IA

Change the Weather History Date:

Wednesday, October 23, 2013

  Actual Average (KOXV) Record (KOXV)
Temperature  
Mean Temperature 36 °F -  
Max Temperature 43 °F 62 °F 84 °F (1963)
Min Temperature 30 °F 43 °F 20 °F (1981)
Degree Days  
Heating Degree Days 28    
Moisture  
Dew Point 29 °F    
Average Humidity 76    
Maximum Humidity 93    
Minimum Humidity 46    
Precipitation  
Precipitation 0.00 in - - ()
Sea Level Pressure  
Sea Level Pressure 30.10 in    
Wind  
Wind Speed 7 mph (WNW)    
Max Wind Speed 10 mph    
Max Gust Speed 17 mph    
Visibility 10 miles    
Events Rain    
Averages and records for this station are not official NWS values.
T = Trace of Precipitation, MM = Missing Value Source: NWS Daily Summary

Daily Weather History Graph

Daily Weather History Graph

Search for Another Location

Airport:

Trip Planner

Search our weather history database for the weather conditions in past years. The results will help you decide how hot, cold, wet, or windy it might be!

Date:

Astronomy

Oct. 23, 2013 Rise Set
Actual Time 7:33 AM CDT 6:18 PM CDT
Civil Twilight 7:04 AM CDT 6:46 PM CDT
Nautical Twilight 6:32 AM CDT 7:18 PM CDT
Astronomical Twilight 6:00 AM CDT 7:50 PM CDT
Moon 9:48 PM CDT (10/23) 11:52 AM CDT (10/23)
Length of Visible Light 11h 41m
Length of Day
10h 45m
Waning Gibbous, 79% of the Moon is Illuminated
Oct 23
Waning Gibbous
Oct 26
Last Quarter
Nov 3
New
Nov 9
First Quarter
Nov 17
Full

Hourly Weather History & Observations

Time (CDT) Temp. Windchill Dew Point Humidity Pressure Visibility Wind Dir Wind Speed Gust Speed Precip Events Conditions
12:15 AM 35.8 °F 30.1 °F 29.3 °F 77% 30.06 in 10.0 mi NW 6.9 mph - N/A   Overcast
12:35 AM 35.6 °F 29.9 °F 29.3 °F 78% 30.06 in 10.0 mi NW 6.9 mph - N/A   Overcast
12:55 AM 35.6 °F 29.9 °F 29.1 °F 77% 30.07 in 10.0 mi NW 6.9 mph - N/A   Overcast
1:15 AM 35.2 °F 30.3 °F 28.9 °F 78% 30.07 in 10.0 mi NW 5.8 mph - N/A   Overcast
1:35 AM 35.4 °F 30.5 °F 27.9 °F 74% 30.07 in 10.0 mi NW 5.8 mph - N/A   Overcast
1:55 AM 35.6 °F 29.2 °F 27.7 °F 73% 30.07 in 10.0 mi NW 8.1 mph - N/A   Overcast
2:15 AM 35.2 °F 28.1 °F 27.1 °F 72% 30.06 in 10.0 mi NW 9.2 mph - N/A   Overcast
2:35 AM 35.1 °F 29.3 °F 27.5 °F 74% 30.06 in 10.0 mi NNW 6.9 mph - N/A   Overcast
2:55 AM 34.9 °F 29.0 °F 27.5 °F 74% 30.06 in 10.0 mi NW 6.9 mph - N/A   Overcast
3:15 AM 34.7 °F 30.6 °F 27.7 °F 76% 30.06 in 10.0 mi NW 4.6 mph - N/A   Overcast
3:35 AM 34.9 °F 29.0 °F 27.7 °F 75% 30.06 in 10.0 mi NW 6.9 mph - N/A   Overcast
3:55 AM 34.9 °F 29.9 °F 27.5 °F 74% 30.06 in 10.0 mi NW 5.8 mph - N/A   Overcast
4:15 AM 34.7 °F 28.1 °F 27.3 °F 74% 30.06 in 10.0 mi NW 8.1 mph - N/A   Overcast
4:35 AM 34.7 °F 29.6 °F 27.0 °F 73% 30.07 in 10.0 mi NW 5.8 mph - N/A   Overcast
4:55 AM 34.0 °F 28.8 °F 26.6 °F 74% 30.06 in 10.0 mi NW 5.8 mph - N/A   Overcast
5:15 AM 32.2 °F 25.8 °F 26.2 °F 79% 30.07 in 10.0 mi WNW 6.9 mph - N/A   Scattered Clouds
5:35 AM 32.0 °F 24.8 °F 25.7 °F 78% 30.07 in 10.0 mi WNW 8.1 mph - N/A   Clear
5:55 AM 32.0 °F 26.4 °F 25.3 °F 76% 30.08 in 10.0 mi WNW 5.8 mph - N/A   Clear
6:15 AM 31.5 °F 24.9 °F 25.2 °F 78% 30.08 in 10.0 mi WNW 6.9 mph - N/A   Clear
6:35 AM 31.1 °F 25.4 °F 24.8 °F 77% 30.08 in 10.0 mi WNW 5.8 mph - N/A   Clear
6:55 AM 30.6 °F 24.7 °F 24.8 °F 79% 30.10 in 10.0 mi NW 5.8 mph - N/A   Clear
7:15 AM 30.2 °F 24.3 °F 24.6 °F 80% 30.10 in 10.0 mi NW 5.8 mph - N/A   Clear
7:35 AM 30.0 °F 25.2 °F 24.3 °F 79% 30.09 in 10.0 mi NW 4.6 mph - N/A   Clear
7:55 AM 30.2 °F 24.3 °F 24.8 °F 80% 30.10 in 10.0 mi WNW 5.8 mph - N/A   Clear
8:15 AM 32.0 °F 26.4 °F 26.4 °F 80% 30.11 in 10.0 mi WNW 5.8 mph - N/A   Clear
8:35 AM 33.3 °F 26.4 °F 27.0 °F 78% 30.11 in 10.0 mi WNW 8.1 mph - N/A   Clear
8:55 AM 34.7 °F 28.1 °F 27.1 °F 74% 30.12 in 10.0 mi WNW 8.1 mph - N/A   Clear
9:15 AM 35.8 °F 30.9 °F 27.1 °F 71% 30.11 in 10.0 mi WNW 5.8 mph - N/A   Clear
9:35 AM 37.0 °F 31.0 °F 27.5 °F 68% 30.11 in 10.0 mi WNW 8.1 mph - N/A   Clear
9:55 AM 37.4 °F 32.1 °F 27.0 °F 66% 30.11 in 10.0 mi WNW 6.9 mph - N/A   Clear
10:15 AM 38.3 °F 31.4 °F 24.8 °F 58% 30.12 in 10.0 mi WNW 10.4 mph - N/A   Clear
10:35 AM 39.7 °F 33.7 °F 25.5 °F 57% 30.12 in 10.0 mi West 9.2 mph - N/A   Clear
10:55 AM 41.0 °F 34.7 °F 23.5 °F 50% 30.12 in 10.0 mi West 10.4 mph - N/A   Clear
11:15 AM 42.1 °F 36.1 °F 22.5 °F 46% 30.12 in 10.0 mi West 10.4 mph - N/A   Clear
11:35 AM 42.4 °F 38.1 °F 24.8 °F 50% 30.11 in 10.0 mi WSW 6.9 mph - N/A   Scattered Clouds
11:55 AM 42.1 °F 36.6 °F 23.2 °F 47% 30.11 in 10.0 mi West 9.2 mph - N/A   Scattered Clouds
12:15 PM 42.3 °F 37.3 °F 23.4 °F 47% 30.11 in 10.0 mi WNW 8.1 mph - N/A   Mostly Cloudy
12:35 PM 43.0 °F 38.2 °F 24.6 °F 48% 30.10 in 10.0 mi WNW 8.1 mph 17.3 mph N/A   Mostly Cloudy
12:55 PM 41.5 °F 37.1 °F 24.1 °F 50% 30.09 in 10.0 mi West 6.9 mph - N/A   Scattered Clouds
1:15 PM 41.2 °F 36.6 °F 24.6 °F 52% 30.09 in 10.0 mi WNW 6.9 mph - N/A   Clear
1:35 PM 40.6 °F 36.0 °F 25.5 °F 55% 30.09 in 10.0 mi WSW 6.9 mph - N/A   Scattered Clouds
1:55 PM 40.6 °F 37.5 °F 26.4 °F 57% 30.08 in 10.0 mi West 4.6 mph - N/A   Scattered Clouds
2:15 PM 39.7 °F 33.7 °F 28.2 °F 63% 30.08 in 10.0 mi West 9.2 mph - N/A   Light Drizzle
2:35 PM 38.5 °F 34.1 °F 30.0 °F 72% 30.08 in 10.0 mi WSW 5.8 mph - N/A Rain Light Rain
2:55 PM 38.1 °F 34.6 °F 32.2 °F 79% 30.08 in 10.0 mi WNW 4.6 mph - N/A Rain Light Rain
3:15 PM 37.4 °F 31.4 °F 32.5 °F 83% 30.08 in 7.0 mi WNW 8.1 mph - N/A Rain Rain
3:35 PM 37.4 °F 33.8 °F 33.1 °F 84% 30.09 in 10.0 mi WNW 4.6 mph - N/A Rain Light Rain
3:55 PM 37.6 °F 34.0 °F 33.6 °F 86% 30.09 in 7.0 mi WNW 4.6 mph - N/A   Drizzle
4:15 PM 37.4 °F 32.1 °F 34.0 °F 87% 30.09 in 10.0 mi West 6.9 mph - N/A   Light Drizzle
4:35 PM 37.4 °F 34.9 °F 34.2 °F 88% 30.09 in 10.0 mi WNW 3.5 mph - N/A   Drizzle
4:55 PM 37.4 °F 34.9 °F 34.2 °F 88% 30.09 in 10.0 mi West 3.5 mph - N/A   Drizzle
5:15 PM 37.6 °F 33.1 °F 34.7 °F 89% 30.09 in 10.0 mi West 5.8 mph - N/A   Light Drizzle
5:35 PM 37.4 °F 31.4 °F 33.3 °F 85% 30.09 in 10.0 mi West 8.1 mph - N/A   Mostly Cloudy
5:55 PM 37.4 °F 32.8 °F 33.1 °F 84% 30.10 in 10.0 mi West 5.8 mph - N/A   Overcast
6:15 PM 37.0 °F 32.4 °F 33.1 °F 86% 30.10 in 10.0 mi West 5.8 mph - N/A   Overcast
6:35 PM 37.0 °F 31.0 °F 33.8 °F 88% 30.10 in 10.0 mi West 8.1 mph - N/A   Overcast
6:55 PM 36.9 °F 31.4 °F 34.2 °F 90% 30.10 in 10.0 mi West 6.9 mph - N/A   Overcast
7:15 PM 36.7 °F 30.5 °F 34.0 °F 90% 30.11 in 10.0 mi WNW 8.1 mph - N/A   Drizzle
7:35 PM 36.7 °F 32.0 °F 34.2 °F 91% 30.11 in 10.0 mi West 5.8 mph - N/A   Overcast
7:55 PM 36.7 °F 32.0 °F 34.7 °F 93% 30.11 in 10.0 mi West 5.8 mph - N/A   Overcast
8:15 PM 36.7 °F 32.0 °F 34.7 °F 93% 30.11 in 10.0 mi West 5.8 mph - N/A   Overcast
8:35 PM 36.7 °F 34.1 °F 34.7 °F 93% 30.11 in 10.0 mi West 3.5 mph - N/A   Overcast
8:55 PM 36.9 °F 33.1 °F 34.9 °F 93% 30.11 in 7.0 mi WNW 4.6 mph - N/A   Light Drizzle
9:15 PM 36.9 °F 30.1 °F 34.7 °F 92% 30.12 in 10.0 mi WNW 9.2 mph 17.3 mph N/A   Light Drizzle
9:35 PM 36.7 °F 30.5 °F 34.3 °F 91% 30.12 in 10.0 mi WNW 8.1 mph 16.1 mph N/A   Overcast
9:55 PM 36.5 °F 31.0 °F 34.7 °F 93% 30.13 in 10.0 mi NW 6.9 mph - N/A   Overcast
10:15 PM 36.5 °F 29.7 °F 34.0 °F 91% 30.13 in 10.0 mi NNW 9.2 mph - N/A   Overcast
10:35 PM 36.5 °F 29.7 °F 33.6 °F 89% 30.14 in 10.0 mi NW 9.2 mph - N/A   Overcast
10:55 PM 36.5 °F 31.8 °F 32.4 °F 85% 30.14 in 10.0 mi NW 5.8 mph - N/A   Overcast
11:15 PM 36.0 °F 28.5 °F 29.5 °F 77% 30.14 in 10.0 mi NNW 10.4 mph - N/A   Overcast
11:35 PM 35.6 °F 29.9 °F 29.3 °F 78% 30.14 in 10.0 mi NNW 6.9 mph - N/A   Overcast
11:55 PM 35.6 °F 29.9 °F 29.1 °F 77% 30.15 in 10.0 mi NW 6.9 mph - N/A   Overcast